| time (UTC) | temp C | wind direction | speed KPH | gust KPH | rain 1hr cm | rain 24hr cm | rain mn cm | humidity % | barometer mb |
| 20260510205013 | 27 | 202 | 4.8 | 14.5 | 0.00 | 0.33 | 0.00 | 72 | 1016.3 |
| 20260510204520 | 27 | 86 | 8.0 | 14.5 | 0.00 | 0.36 | 0.00 | 75 | 1016.3 |
| 20260510204010 | 26 | 153 | 6.4 | 12.9 | 0.00 | 0.36 | 0.00 | 74 | 1016.3 |
| 20260510203503 | 27 | 109 | 4.8 | 12.9 | 0.00 | 0.36 | 0.00 | 71 | 1016.3 |
| 20260510203007 | 27 | 71 | 8.0 | 16.1 | 0.00 | 0.38 | 0.00 | 69 | 1016.2 |
| 20260510202502 | 27 | 127 | 8.0 | 16.1 | 0.00 | 0.41 | 0.00 | 71 | 1016.3 |
| 20260510202004 | 27 | 125 | 6.4 | 14.5 | 0.00 | 0.41 | 0.00 | 70 | 1016.3 |
| 20260510201507 | 27 | 158 | 1.6 | 14.5 | 0.00 | 0.46 | 0.00 | 71 | 1016.3 |
| 20260510201004 | 27 | 164 | 4.8 | 17.7 | 0.00 | 0.46 | 0.00 | 72 | 1016.3 |
| 20260510200506 | 27 | 153 | 9.7 | 17.7 | 0.00 | 0.48 | 0.00 | 72 | 1016.3 |
| 20260510200010 | 27 | 100 | 6.4 | 14.5 | 0.00 | 0.48 | 0.00 | 72 | 1016.3 |
| 20260510195504 | 27 | 127 | 8.0 | 14.5 | 0.00 | 0.48 | 0.00 | 71 | 1016.3 |
| 20260510195008 | 27 | 144 | 8.0 | 14.5 | 0.00 | 0.51 | 0.00 | 71 | 1016.4 |
| 20260510194520 | 27 | 19 | 3.2 | 9.7 | 0.00 | 0.53 | 0.00 | 71 | 1016.3 |
| 20260510194007 | 27 | 360 | 3.2 | 9.7 | 0.00 | 0.56 | 0.00 | 69 | 1016.4 |
| 20260510193507 | 27 | 38 | 1.6 | 9.7 | 0.00 | 0.58 | 0.00 | 70 | 1016.4 |
| 20260510193020 | 26 | 76 | 3.2 | 9.7 | 0.00 | 0.58 | 0.00 | 72 | 1016.4 |
| 20260510192508 | 26 | 88 | 3.2 | 6.4 | 0.00 | 0.58 | 0.00 | 71 | 1016.5 |
| 20260510192007 | 26 | 119 | 1.6 | 11.3 | 0.00 | 0.58 | 0.00 | 72 | 1016.5 |
| 20260510191518 | 26 | 342 | 0.0 | 11.3 | 0.00 | 0.58 | 0.00 | 72 | 1016.5 |
| 20260510191003 | 26 | 103 | 1.6 | 9.7 | 0.00 | 0.61 | 0.00 | 71 | 1016.6 |
| 20260510190504 | 26 | 38 | 4.8 | 12.9 | 0.00 | 0.61 | 0.00 | 70 | 1016.7 |
| 20260510190012 | 27 | 17 | 6.4 | 12.9 | 0.00 | 0.61 | 0.00 | 73 | 1016.7 |
| 20260510185509 | 26 | 82 | 4.8 | 14.5 | 0.00 | 0.61 | 0.00 | 72 | 1016.8 |
| 20260510185011 | 26 | 46 | 3.2 | 14.5 | 0.00 | 0.61 | 0.00 | 73 | 1016.8 |
| 20260510184514 | 26 | 90 | 3.2 | 8.0 | 0.00 | 0.61 | 0.00 | 74 | 1016.8 |
| 20260510184009 | 26 | 84 | 1.6 | 9.7 | 0.00 | 0.61 | 0.00 | 73 | 1016.9 |
| 20260510183511 | 26 | 83 | 3.2 | 9.7 | 0.00 | 0.61 | 0.00 | 75 | 1017.0 |
| 20260510183020 | 26 | 76 | 0.0 | 6.4 | 0.00 | 0.61 | 0.00 | 74 | 1017.0 |
| 20260510182506 | 26 | 53 | 0.0 | 8.0 | 0.00 | 0.64 | 0.00 | 75 | 1017.1 |
| 20260510182011 | 26 | 91 | 1.6 | 8.0 | 0.00 | 0.64 | 0.00 | 75 | 1017.2 |
| 20260510181524 | 26 | 80 | 4.8 | 8.0 | 0.00 | 0.64 | 0.00 | 74 | 1017.3 |
| 20260510181007 | 26 | 348 | 3.2 | 9.7 | 0.00 | 0.64 | 0.00 | 74 | 1017.3 |
| 20260510180512 | 26 | 66 | 4.8 | 9.7 | 0.00 | 0.64 | 0.00 | 75 | 1017.3 |
| 20260510180007 | 26 | 141 | 0.0 | 8.0 | 0.00 | 0.64 | 0.00 | 75 | 1017.4 |
| 20260510175503 | 25 | 352 | 1.6 | 11.3 | 0.00 | 0.64 | 0.00 | 75 | 1017.4 |
| 20260510175006 | 25 | 12 | 3.2 | 11.3 | 0.00 | 0.64 | 0.00 | 75 | 1017.5 |
| 20260510174513 | 25 | 67 | 8.0 | 14.5 | 0.00 | 0.64 | 0.00 | 75 | 1017.5 |
| 20260510174005 | 26 | 28 | 8.0 | 14.5 | 0.00 | 0.64 | 0.00 | 75 | 1017.6 |
| 20260510173510 | 25 | 351 | 0.0 | 11.3 | 0.00 | 0.64 | 0.00 | 77 | 1017.6 |
| 20260510173017 | 25 | 91 | 6.4 | 14.5 | 0.00 | 0.64 | 0.00 | 78 | 1017.6 |
| 20260510172510 | 25 | 108 | 6.4 | 14.5 | 0.00 | 0.64 | 0.00 | 78 | 1017.8 |
| 20260510172010 | 25 | 360 | 1.6 | 8.0 | 0.00 | 0.64 | 0.00 | 80 | 1017.8 |
| 20260510171522 | 25 | 20 | 3.2 | 12.9 | 0.00 | 0.64 | 0.00 | 78 | 1017.8 |
| 20260510171006 | 25 | 58 | 6.4 | 12.9 | 0.00 | 0.64 | 0.00 | 80 | 1017.8 |
| 20260510170514 | 25 | 95 | 6.4 | 12.9 | 0.00 | 0.64 | 0.00 | 78 | 1017.9 |
| 20260510170032 | 24 | 40 | 3.2 | 12.9 | 0.00 | 0.64 | 0.00 | 78 | 1017.9 |
| 20260510165508 | 24 | 67 | 4.8 | 12.9 | 0.00 | 0.66 | 0.00 | 81 | 1017.9 |
| 20260510165009 | 24 | 38 | 6.4 | 12.9 | 0.00 | 0.71 | 0.00 | 82 | 1017.9 |
| 20260510164517 | 24 | 51 | 4.8 | 9.7 | 0.00 | 0.76 | 0.00 | 83 | 1018.0 |
| 20260510164006 | 24 | 85 | 4.8 | 14.5 | 0.00 | 0.79 | 0.00 | 84 | 1018.0 |
| 20260510163507 | 23 | 73 | 6.4 | 14.5 | 0.00 | 0.84 | 0.00 | 82 | 1018.0 |
| 20260510163013 | 23 | 79 | 1.6 | 12.9 | 0.00 | 0.91 | 0.00 | 84 | 1018.0 |
| 20260510162506 | 23 | 108 | 4.8 | 12.9 | 0.00 | 0.97 | 0.00 | 84 | 1018.1 |
| 20260510162010 | 23 | 34 | 1.6 | 12.9 | 0.00 | 1.02 | 0.00 | 85 | 1018.2 |
| 20260510161520 | 23 | 348 | 3.2 | 14.5 | 0.00 | 1.04 | 0.00 | 84 | 1018.3 |
| 20260510161011 | 23 | 351 | 8.0 | 14.5 | 0.00 | 1.09 | 0.00 | 84 | 1018.3 |
| 20260510160508 | 23 | 68 | 4.8 | 11.3 | 0.00 | 1.12 | 0.00 | 85 | 1018.3 |
| 20260510160022 | 22 | 335 | 1.6 | 9.7 | 0.00 | 1.17 | 0.00 | 85 | 1018.2 |
| 20260510155510 | 22 | 19 | 1.6 | 9.7 | 0.00 | 1.19 | 0.00 | 85 | 1018.3 |
| 20260510155010 | 22 | 42 | 4.8 | 11.3 | 0.00 | 1.22 | 0.00 | 85 | 1018.3 |
| 20260510154534 | 22 | 21 | 4.8 | 14.5 | 0.00 | 1.27 | 0.00 | 85 | 1018.3 |
| 20260510154016 | 22 | 38 | 6.4 | 14.5 | 0.00 | 1.30 | 0.00 | 85 | 1018.3 |
| 20260510153513 | 22 | 21 | 1.6 | 16.1 | 0.00 | 1.30 | 0.00 | 86 | 1018.3 |
| 20260510153015 | 22 | 100 | 6.4 | 16.1 | 0.00 | 1.32 | 0.00 | 86 | 1018.2 |
| 20260510152506 | 21 | 99 | 4.8 | 12.9 | 0.00 | 1.37 | 0.00 | 85 | 1018.2 |
| 20260510152008 | 22 | 92 | 6.4 | 12.9 | 0.00 | 1.40 | 0.00 | 85 | 1018.2 |
| 20260510151516 | 22 | 20 | 3.2 | 12.9 | 0.00 | 1.42 | 0.00 | 85 | 1018.2 |
| 20260510151006 | 21 | 96 | 3.2 | 12.9 | 0.00 | 1.45 | 0.00 | 86 | 1018.2 |
| 20260510150507 | 21 | 92 | 4.8 | 16.1 | 0.00 | 1.47 | 0.00 | 86 | 1018.1 |
| 20260510150020 | 21 | 52 | 6.4 | 16.1 | 0.00 | 1.52 | 0.00 | 86 | 1018.1 |
| 20260510145511 | 21 | 135 | 8.0 | 16.1 | 0.00 | 1.57 | 0.00 | 87 | 1018.1 |
| 20260510145007 | 21 | 137 | 8.0 | 14.5 | 0.00 | 1.60 | 0.00 | 87 | 1018.1 |
| 20260510144537 | 21 | 18 | 3.2 | 11.3 | 0.00 | 1.63 | 0.00 | 87 | 1018.1 |
| 20260510144012 | 21 | 108 | 4.8 | 12.9 | 0.00 | 1.68 | 0.00 | 88 | 1018.1 |
| 20260510143511 | 21 | 82 | 4.8 | 14.5 | 0.00 | 1.70 | 0.00 | 88 | 1018.2 |
| 20260510143038 | 21 | 64 | 6.4 | 14.5 | 0.00 | 1.75 | 0.00 | 88 | 1018.3 |
| 20260510142510 | 21 | 76 | 6.4 | 12.9 | 0.00 | 1.83 | 0.00 | 90 | 1018.2 |
| 20260510142011 | 21 | 61 | 6.4 | 12.9 | 0.00 | 1.88 | 0.00 | 91 | 1018.2 |
| 20260510141515 | 20 | 89 | 3.2 | 12.9 | 0.00 | 1.96 | 0.00 | 91 | 1018.1 |
| 20260510141005 | 20 | 88 | 3.2 | 9.7 | 0.00 | 2.01 | 0.00 | 91 | 1018.1 |
| 20260510140507 | 20 | 44 | 4.8 | 9.7 | 0.00 | 2.06 | 0.00 | 91 | 1018.2 |
| 20260510140018 | 19 | 43 | 3.2 | 8.0 | 0.00 | 2.11 | 0.00 | 91 | 1018.1 |
| 20260510135509 | 19 | 40 | 3.2 | 8.0 | 0.00 | 2.16 | 0.00 | 91 | 1018.0 |
| 20260510135008 | 19 | 36 | 3.2 | 8.0 | 0.00 | 2.21 | 0.00 | 91 | 1018.1 |
| 20260510134524 | 19 | 79 | 3.2 | 9.7 | 0.00 | 2.29 | 0.00 | 91 | 1018.1 |
| 20260510134008 | 18 | 59 | 3.2 | 11.3 | 0.00 | 2.34 | 0.00 | 91 | 1018.1 |
| 20260510133510 | 18 | 111 | 6.4 | 11.3 | 0.00 | 2.39 | 0.00 | 91 | 1018.1 |
| 20260510133025 | 18 | 65 | 4.8 | 9.7 | 0.00 | 2.41 | 0.00 | 91 | 1018.1 |
| 20260510132511 | 18 | 52 | 4.8 | 8.0 | 0.00 | 2.44 | 0.00 | 91 | 1018.0 |
| 20260510132012 | 18 | 69 | 3.2 | 6.4 | 0.00 | 2.46 | 0.00 | 91 | 1017.8 |
| 20260510131534 | 18 | 42 | 3.2 | 9.7 | 0.00 | 2.49 | 0.00 | 91 | 1017.8 |
| 20260510131016 | 18 | 58 | 3.2 | 9.7 | 0.00 | 2.57 | 0.00 | 91 | 1017.8 |
| 20260510130510 | 18 | 42 | 3.2 | 9.7 | 0.00 | 2.67 | 0.00 | 91 | 1017.7 |
| 20260510130016 | 18 | 79 | 4.8 | 9.7 | 0.00 | 3.02 | 0.00 | 91 | 1017.6 |
| 20260510125508 | 18 | 55 | 3.2 | 11.3 | 0.00 | 3.63 | 0.00 | 91 | 1017.5 |
| 20260510125011 | 17 | 57 | 4.8 | 11.3 | 0.00 | 5.05 | 0.00 | 91 | 1017.4 |
| 20260510124522 | 17 | 66 | 3.2 | 6.4 | 0.00 | 7.04 | 0.00 | 91 | 1017.3 |
| 20260510124013 | 17 | 98 | 1.6 | 6.4 | 0.00 | 7.72 | 0.00 | 91 | 1017.3 |
| 20260510123514 | 17 | 89 | 1.6 | 9.7 | 0.00 | 7.72 | 0.00 | 91 | 1017.1 |
| 20260510123030 | 17 | 116 | 1.6 | 9.7 | 0.00 | 7.75 | 0.00 | 91 | 1017.1 |
| 20260510122510 | 17 | 121 | 3.2 | 8.0 | 0.00 | 7.75 | 0.00 | 91 | 1017.0 |
| 20260510122014 | 17 | 152 | 1.6 | 4.8 | 0.00 | 7.75 | 0.00 | 91 | 1016.9 |
| 20260510121526 | 17 | 152 | 0.0 | 3.2 | 0.00 | 7.75 | 0.00 | 91 | 1017.0 |
| 20260510121009 | 17 | 152 | 0.0 | 4.8 | 0.00 | 7.75 | 0.00 | 91 | 1017.0 |
| 20260510120510 | 17 | 152 | 0.0 | 4.8 | 0.00 | 7.75 | 0.00 | 91 | 1016.9 |
| 20260510120028 | 17 | 152 | 0.0 | 3.2 | 0.00 | 7.85 | 0.00 | 91 | 1016.8 |
| 20260510115507 | 17 | 152 | 0.0 | 4.8 | 0.00 | 7.85 | 0.00 | 91 | 1016.7 |
| 20260510115001 | 17 | 152 | 1.6 | 4.8 | 0.00 | 7.87 | 0.00 | 91 | 1016.6 |
| 20260510114501 | 17 | 152 | 1.6 | 4.8 | 0.00 | 7.87 | 0.00 | 91 | 1016.4 |
| 20260510114000 | 16 | 152 | 1.6 | 4.8 | 0.00 | 7.87 | 0.00 | 91 | 1016.3 |
| 20260510113502 | 16 | 152 | 1.6 | 4.8 | 0.00 | 7.87 | 0.00 | 91 | 1016.2 |
| 20260510113004 | 16 | 152 | 3.2 | 4.8 | 0.00 | 7.87 | 0.00 | 91 | 1015.9 |
| 20260510112502 | 16 | 78 | 0.0 | 4.8 | 0.00 | 7.87 | 0.00 | 91 | 1015.8 |
| 20260510112006 | 16 | 78 | 1.6 | 4.8 | 0.00 | 7.87 | 0.00 | 91 | 1015.7 |
| 20260510111508 | 16 | 78 | 1.6 | 3.2 | 0.00 | 7.87 | 0.00 | 91 | 1015.5 |
| 20260510111004 | 16 | 41 | 0.0 | 4.8 | 0.00 | 7.87 | 0.00 | 91 | 1015.3 |
| 20260510110507 | 16 | 32 | 1.6 | 6.4 | 0.00 | 7.87 | 0.00 | 91 | 1015.2 |
| 20260510110030 | 16 | 32 | 3.2 | 6.4 | 0.00 | 7.87 | 0.00 | 91 | 1015.1 |
| 20260510105509 | 16 | 46 | 3.2 | 6.4 | 0.00 | 7.87 | 0.00 | 91 | 1015.1 |
| 20260510105008 | 16 | 15 | 1.6 | 4.8 | 0.00 | 7.87 | 0.00 | 91 | 1015.0 |
| 20260510104517 | 17 | 57 | 1.6 | 6.4 | 0.00 | 7.87 | 0.00 | 91 | 1014.8 |
| 20260510104001 | 17 | 57 | 1.6 | 6.4 | 0.00 | 7.87 | 0.00 | 91 | 1014.8 |
| 20260510103501 | 17 | 51 | 3.2 | 6.4 | 0.00 | 7.87 | 0.00 | 91 | 1014.7 |
| 20260510103006 | 17 | 30 | 3.2 | 6.4 | 0.00 | 7.87 | 0.00 | 91 | 1014.7 |
| 20260510102507 | 16 | 37 | 3.2 | 6.4 | 0.00 | 7.87 | 0.00 | 91 | 1014.7 |
| 20260510102005 | 16 | 36 | 1.6 | 6.4 | 0.00 | 7.87 | 0.00 | 91 | 1014.7 |
| 20260510101504 | 16 | 37 | 3.2 | 6.4 | 0.00 | 7.87 | 0.00 | 91 | 1014.7 |
| 20260510101006 | 16 | 37 | 1.6 | 6.4 | 0.00 | 7.87 | 0.00 | 91 | 1014.7 |
| 20260510100504 | 17 | 53 | 1.6 | 4.8 | 0.00 | 7.87 | 0.00 | 91 | 1014.6 |
| 20260510100015 | 17 | 84 | 1.6 | 4.8 | 0.00 | 7.87 | 0.00 | 91 | 1014.5 |
| 20260510095505 | 16 | 44 | 1.6 | 3.2 | 0.00 | 7.87 | 0.00 | 91 | 1014.4 |
| 20260510095007 | 16 | 352 | 0.0 | 3.2 | 0.00 | 7.87 | 0.00 | 90 | 1014.4 |
| 20260510094536 | 16 | 352 | 0.0 | 1.6 | 0.00 | 7.87 | 0.00 | 91 | 1014.5 |
| 20260510094009 | 16 | 352 | 0.0 | 3.2 | 0.00 | 7.87 | 0.00 | 90 | 1014.5 |
| 20260510093510 | 16 | 352 | 0.0 | 3.2 | 0.00 | 7.87 | 0.00 | 90 | 1014.5 |
| 20260510093021 | 16 | 352 | 1.6 | 3.2 | 0.00 | 7.87 | 0.00 | 90 | 1014.5 |
| 20260510092502 | 16 | 352 | 0.0 | 0.0 | 0.00 | 7.87 | 0.00 | 90 | 1014.5 |
| 20260510092001 | 16 | 352 | 0.0 | 1.6 | 0.00 | 7.87 | 0.00 | 90 | 1014.6 |
| 20260510091516 | 16 | 352 | 0.0 | 3.2 | 0.00 | 7.87 | 0.00 | 91 | 1014.6 |
| 20260510091005 | 16 | 352 | 1.6 | 3.2 | 0.00 | 7.87 | 0.00 | 90 | 1014.7 |
| 20260510090505 | 16 | 352 | 0.0 | 1.6 | 0.00 | 7.87 | 0.00 | 90 | 1014.7 |
| 20260510090013 | 16 | 352 | 0.0 | 0.0 | 0.00 | 7.87 | 0.00 | 91 | 1014.6 |
| 20260510085504 | 17 | 352 | 0.0 | 0.0 | 0.00 | 7.90 | 0.00 | 91 | 1014.6 |
| 20260510085004 | 17 | 352 | 0.0 | 1.6 | 0.00 | 7.90 | 0.00 | 91 | 1014.6 |
| 20260510084514 | 17 | 352 | 0.0 | 3.2 | 0.00 | 7.92 | 0.00 | 90 | 1014.5 |
| 20260510084005 | 17 | 352 | 0.0 | 3.2 | 0.00 | 7.92 | 0.00 | 90 | 1014.4 |
| 20260510083507 | 17 | 352 | 1.6 | 3.2 | 0.00 | 7.92 | 0.00 | 90 | 1014.4 |
| 20260510083020 | 17 | 352 | 1.6 | 3.2 | 0.00 | 7.92 | 0.00 | 91 | 1014.4 |
| 20260510082504 | 17 | 352 | 0.0 | 3.2 | 0.00 | 7.92 | 0.00 | 91 | 1014.4 |
| 20260510082008 | 17 | 352 | 0.0 | 4.8 | 0.00 | 7.92 | 0.00 | 90 | 1014.4 |
| 20260510081524 | 17 | 352 | 1.6 | 4.8 | 0.00 | 7.92 | 0.00 | 90 | 1014.3 |
| 20260510081002 | 17 | 349 | 1.6 | 6.4 | 0.00 | 7.92 | 0.00 | 90 | 1014.2 |
| 20260510080504 | 17 | 352 | 3.2 | 6.4 | 0.00 | 7.92 | 0.00 | 90 | 1014.2 |
| 20260510080005 | 17 | 350 | 3.2 | 4.8 | 0.00 | 7.92 | 0.00 | 90 | 1014.2 |
| 20260510075504 | 17 | 5 | 0.0 | 3.2 | 0.00 | 7.92 | 0.00 | 90 | 1014.1 |
| 20260510075004 | 17 | 5 | 1.6 | 3.2 | 0.00 | 7.92 | 0.00 | 90 | 1014.1 |
| 20260510074512 | 17 | 5 | 0.0 | 3.2 | 0.00 | 7.92 | 0.00 | 90 | 1014.0 |
| 20260510074006 | 17 | 5 | 0.0 | 3.2 | 0.00 | 7.92 | 0.00 | 90 | 1014.0 |
| 20260510073505 | 17 | 5 | 1.6 | 3.2 | 0.00 | 7.92 | 0.00 | 90 | 1014.0 |
| 20260510073018 | 17 | 5 | 1.6 | 3.2 | 0.00 | 7.92 | 0.00 | 90 | 1014.0 |
| 20260510072507 | 17 | 5 | 0.0 | 1.6 | 0.00 | 7.92 | 0.00 | 90 | 1013.9 |
| 20260510072008 | 17 | 5 | 0.0 | 3.2 | 0.00 | 7.92 | 0.00 | 90 | 1013.9 |
| 20260510071519 | 17 | 5 | 0.0 | 3.2 | 0.00 | 7.92 | 0.00 | 90 | 1013.9 |
| 20260510071005 | 17 | 5 | 1.6 | 3.2 | 0.00 | 7.92 | 0.00 | 90 | 1014.0 |
| 20260510070510 | 17 | 5 | 0.0 | 3.2 | 0.00 | 7.92 | 0.00 | 90 | 1014.0 |
| 20260510070030 | 17 | 360 | 0.0 | 3.2 | 0.00 | 7.92 | 0.00 | 90 | 1014.1 |
| 20260510065509 | 17 | 360 | 0.0 | 4.8 | 0.00 | 7.92 | 0.00 | 90 | 1014.1 |
| 20260510065005 | 17 | 360 | 1.6 | 4.8 | 0.00 | 7.92 | 0.00 | 90 | 1014.3 |
| 20260510064508 | 17 | 57 | 1.6 | 3.2 | 0.00 | 7.92 | 0.00 | 90 | 1014.2 |
| 20260510064004 | 17 | 57 | 1.6 | 3.2 | 0.00 | 7.92 | 0.00 | 90 | 1014.2 |
| 20260510063504 | 17 | 57 | 1.6 | 3.2 | 0.00 | 7.95 | 0.00 | 90 | 1014.3 |
| 20260510063013 | 18 | 61 | 0.0 | 1.6 | 0.00 | 7.95 | 0.00 | 90 | 1014.1 |
| 20260510062505 | 18 | 61 | 0.0 | 3.2 | 0.00 | 7.95 | 0.00 | 90 | 1013.9 |
| 20260510062007 | 18 | 61 | 0.0 | 3.2 | 0.00 | 7.95 | 0.00 | 90 | 1014.0 |
| 20260510061518 | 18 | 61 | 1.6 | 3.2 | 0.00 | 7.98 | 0.00 | 90 | 1014.1 |
| 20260510061007 | 18 | 60 | 0.0 | 3.2 | 0.00 | 8.00 | 0.00 | 90 | 1014.3 |
| 20260510060509 | 18 | 60 | 0.0 | 6.4 | 0.00 | 8.03 | 0.00 | 90 | 1014.4 |
| 20260510060021 | 18 | 60 | 0.0 | 6.4 | 0.00 | 8.05 | 0.00 | 90 | 1014.3 |
| 20260510055507 | 18 | 82 | 1.6 | 4.8 | 0.00 | 8.08 | 0.00 | 90 | 1014.1 |
| 20260510055008 | 18 | 41 | 0.0 | 3.2 | 0.00 | 8.10 | 0.00 | 90 | 1014.2 |
| 20260510054525 | 18 | 41 | 0.0 | 3.2 | 0.00 | 8.10 | 0.00 | 90 | 1014.3 |
| 20260510054009 | 18 | 315 | 1.6 | 3.2 | 0.00 | 8.13 | 0.00 | 90 | 1014.3 |
| 20260510053504 | 18 | 315 | 1.6 | 3.2 | 0.00 | 8.13 | 0.00 | 90 | 1014.4 |
| 20260510053033 | 18 | 315 | 0.0 | 1.6 | 0.00 | 8.15 | 0.00 | 90 | 1014.5 |
| 20260510052504 | 18 | 315 | 0.0 | 3.2 | 0.00 | 8.15 | 0.00 | 90 | 1014.5 |
| 20260510052008 | 18 | 315 | 0.0 | 3.2 | 0.00 | 8.15 | 0.00 | 90 | 1014.5 |
| 20260510051516 | 18 | 315 | 1.6 | 3.2 | 0.00 | 8.15 | 0.00 | 90 | 1014.5 |
| 20260510051005 | 18 | 315 | 1.6 | 4.8 | 0.00 | 8.15 | 0.00 | 90 | 1014.5 |
| 20260510050509 | 18 | 333 | 1.6 | 6.4 | 0.00 | 8.15 | 0.00 | 90 | 1014.4 |
| 20260510050021 | 18 | 333 | 3.2 | 6.4 | 0.00 | 8.18 | 0.00 | 90 | 1014.3 |
| 20260510045508 | 18 | 346 | 3.2 | 6.4 | 0.00 | 8.18 | 8.18 | 90 | 1014.3 |
| 20260510045010 | 18 | 35 | 1.6 | 12.9 | 0.00 | 8.18 | 8.18 | 90 | 1014.2 |
| 20260510044525 | 18 | 58 | 1.6 | 14.5 | 0.00 | 8.18 | 8.18 | 90 | 1014.0 |
| 20260510044010 | 18 | 81 | 6.4 | 14.5 | 0.00 | 8.18 | 8.18 | 90 | 1013.8 |
| 20260510043513 | 18 | 101 | 8.0 | 11.3 | 0.00 | 8.18 | 8.18 | 90 | 1013.6 |
| 20260510043039 | 18 | 352 | 4.8 | 8.0 | 0.00 | 8.18 | 8.18 | 90 | 1014.1 |
| 20260510042508 | 18 | 349 | 3.2 | 8.0 | 0.00 | 8.18 | 8.18 | 90 | 1014.1 |
| 20260510042005 | 18 | 65 | 3.2 | 8.0 | 0.00 | 8.18 | 8.18 | 90 | 1013.8 |
| 20260510041522 | 18 | 51 | 3.2 | 6.4 | 0.00 | 8.18 | 8.18 | 90 | 1013.8 |
| 20260510041005 | 18 | 76 | 3.2 | 11.3 | 0.00 | 8.18 | 8.18 | 90 | 1014.0 |
| 20260510040505 | 18 | 95 | 4.8 | 11.3 | 0.00 | 8.18 | 8.18 | 90 | 1014.0 |
| 20260510040031 | 18 | 72 | 1.6 | 4.8 | 0.00 | 8.18 | 8.18 | 90 | 1014.4 |
| 20260510035509 | 18 | 67 | 0.0 | 3.2 | 0.00 | 8.18 | 8.18 | 90 | 1014.6 |
| 20260510035010 | 18 | 67 | 0.0 | 3.2 | 0.00 | 8.18 | 8.18 | 90 | 1014.8 |
| 20260510034524 | 18 | 67 | 1.6 | 3.2 | 0.00 | 8.18 | 8.18 | 90 | 1015.0 |
| 20260510034013 | 18 | 67 | 0.0 | 3.2 | 0.00 | 8.18 | 8.18 | 90 | 1015.1 |
| 20260510033508 | 18 | 67 | 0.0 | 3.2 | 0.00 | 8.18 | 8.18 | 90 | 1015.2 |
| 20260510033026 | 18 | 67 | 0.0 | 4.8 | 0.00 | 8.18 | 8.18 | 90 | 1015.1 |
| 20260510032508 | 18 | 67 | 1.6 | 4.8 | 0.00 | 8.18 | 8.18 | 90 | 1015.0 |
| 20260510032016 | 18 | 71 | 3.2 | 4.8 | 0.00 | 8.18 | 8.18 | 90 | 1015.0 |
| 20260510031527 | 18 | 71 | 0.0 | 3.2 | 0.00 | 8.18 | 8.18 | 90 | 1015.0 |
| 20260510031011 | 18 | 71 | 1.6 | 3.2 | 0.00 | 8.18 | 8.18 | 90 | 1015.0 |
| 20260510030505 | 18 | 71 | 1.6 | 3.2 | 0.00 | 8.18 | 8.18 | 90 | 1015.0 |
| 20260510030015 | 18 | 71 | 0.0 | 3.2 | 0.00 | 8.18 | 8.18 | 90 | 1015.1 |
| 20260510025505 | 18 | 71 | 0.0 | 3.2 | 0.00 | 8.18 | 8.18 | 90 | 1014.9 |
| 20260510025008 | 18 | 71 | 1.6 | 3.2 | 0.00 | 8.18 | 8.18 | 90 | 1014.9 |
| 20260510024518 | 18 | 69 | 0.0 | 4.8 | 0.03 | 8.18 | 8.18 | 90 | 1014.8 |
| 20260510024010 | 18 | 69 | 0.0 | 4.8 | 0.03 | 8.18 | 8.18 | 90 | 1014.7 |
| 20260510023507 | 18 | 69 | 3.2 | 4.8 | 0.03 | 8.18 | 8.18 | 90 | 1014.9 |
| 20260510023024 | 18 | 69 | 1.6 | 9.7 | 0.03 | 8.18 | 8.18 | 90 | 1014.5 |
| 20260510022508 | 18 | 66 | 3.2 | 9.7 | 0.03 | 8.18 | 8.18 | 90 | 1014.2 |
| 20260510022007 | 18 | 46 | 4.8 | 9.7 | 0.03 | 8.18 | 8.18 | 90 | 1014.2 |
| 20260510021520 | 18 | 46 | 6.4 | 11.3 | 0.03 | 8.18 | 8.18 | 90 | 1014.4 |
| 20260510021004 | 18 | 5 | 6.4 | 12.9 | 0.03 | 8.18 | 8.18 | 90 | 1014.4 |
| 20260510020506 | 18 | 32 | 6.4 | 14.5 | 0.03 | 8.18 | 8.18 | 90 | 1014.1 |
| 20260510020011 | 18 | 5 | 6.4 | 14.5 | 0.03 | 8.18 | 8.18 | 90 | 1014.4 |
| 20260510015507 | 18 | 342 | 6.4 | 14.5 | 0.03 | 8.18 | 8.18 | 90 | 1014.6 |
| 20260510015007 | 18 | 327 | 6.4 | 14.5 | 0.03 | 8.18 | 8.18 | 90 | 1014.5 |
| 20260510014521 | 18 | 331 | 8.0 | 12.9 | 0.00 | 8.15 | 8.15 | 90 | 1014.2 |
| 20260510014005 | 18 | 332 | 4.8 | 8.0 | 0.00 | 8.15 | 8.15 | 90 | 1014.2 |
| 20260510013509 | 18 | 275 | 1.6 | 6.4 | 0.00 | 8.15 | 8.15 | 90 | 1013.8 |
| 20260510013024 | 18 | 319 | 1.6 | 6.4 | 0.00 | 8.15 | 8.15 | 90 | 1013.5 |
| 20260510012507 | 18 | 211 | 3.2 | 9.7 | 0.00 | 8.15 | 8.15 | 90 | 1013.4 |
| 20260510012007 | 18 | 137 | 4.8 | 11.3 | 0.00 | 8.15 | 8.15 | 90 | 1013.1 |
| 20260510011533 | 18 | 90 | 4.8 | 11.3 | 0.03 | 8.15 | 8.15 | 90 | 1013.1 |
| 20260510011007 | 18 | 116 | 6.4 | 11.3 | 0.03 | 8.15 | 8.15 | 90 | 1013.0 |
| 20260510010513 | 18 | 126 | 6.4 | 11.3 | 0.03 | 8.15 | 8.15 | 90 | 1013.0 |
| 20260510010010 | 18 | 146 | 4.8 | 9.7 | 0.03 | 8.15 | 8.15 | 90 | 1013.3 |
| 20260510005504 | 18 | 128 | 1.6 | 6.4 | 0.03 | 8.15 | 8.15 | 90 | 1013.4 |
| 20260510005004 | 18 | 117 | 3.2 | 6.4 | 0.03 | 8.15 | 8.15 | 90 | 1013.4 |
| 20260510004517 | 18 | 55 | 3.2 | 6.4 | 0.03 | 8.15 | 8.15 | 90 | 1013.4 |
| 20260510004005 | 18 | 157 | 3.2 | 4.8 | 0.03 | 8.15 | 8.15 | 90 | 1013.7 |
| 20260510003504 | 18 | 157 | 0.0 | 4.8 | 0.03 | 8.15 | 8.15 | 90 | 1013.9 |
| 20260510003018 | 18 | 157 | 0.0 | 4.8 | 0.05 | 8.15 | 8.15 | 89 | 1013.9 |
| 20260510002506 | 18 | 116 | 1.6 | 3.2 | 0.05 | 8.15 | 8.15 | 89 | 1013.8 |
| 20260510002011 | 18 | 116 | 1.6 | 3.2 | 0.08 | 8.15 | 8.15 | 89 | 1013.7 |
| 20260510001520 | 18 | 215 | 0.0 | 3.2 | 0.05 | 8.13 | 8.13 | 89 | 1013.8 |
| 20260510001008 | 18 | 194 | 0.0 | 3.2 | 0.08 | 8.13 | 8.13 | 89 | 1013.9 |
| 20260510000507 | 18 | 194 | 1.6 | 4.8 | 0.08 | 8.13 | 8.13 | 89 | 1013.9 |
| 20260510000034 | 18 | 194 | 1.6 | 8.0 | 0.10 | 8.13 | 8.13 | 89 | 1013.7 |
| 20260509235511 | 18 | 194 | 0.0 | 8.0 | 0.13 | 8.13 | 8.13 | 89 | 1013.9 |
| 20260509235005 | 18 | 196 | 3.2 | 8.0 | 0.13 | 8.13 | 8.13 | 89 | 1014.0 |
| 20260509234512 | 18 | 197 | 1.6 | 9.7 | 0.15 | 8.15 | 8.13 | 89 | 1013.8 |
| 20260509234008 | 18 | 164 | 3.2 | 9.7 | 0.18 | 8.15 | 8.13 | 89 | 1013.8 |
| 20260509233503 | 18 | 150 | 4.8 | 9.7 | 0.18 | 8.15 | 8.13 | 89 | 1013.9 |
| 20260509233004 | 19 | 201 | 4.8 | 6.4 | 0.18 | 8.13 | 8.10 | 89 | 1013.8 |
| 20260509232504 | 19 | 201 | 1.6 | 3.2 | 0.18 | 8.13 | 8.10 | 89 | 1013.7 |
| 20260509232000 | 19 | 201 | 0.0 | 3.2 | 0.15 | 8.13 | 8.08 | 89 | 1013.5 |
| 20260509231501 | 18 | 201 | 0.0 | 3.2 | 0.18 | 8.15 | 8.08 | 89 | 1013.5 |
| 20260509231003 | 18 | 201 | 1.6 | 4.8 | 0.15 | 8.18 | 8.05 | 89 | 1013.5 |
| 20260509230504 | 19 | 201 | 0.0 | 6.4 | 0.15 | 8.18 | 8.05 | 90 | 1013.2 |
| 20260509230008 | 19 | 201 | 1.6 | 6.4 | 0.15 | 8.18 | 8.03 | 90 | 1013.4 |
| 20260509225503 | 19 | 201 | 0.0 | 8.0 | 0.13 | 8.15 | 8.00 | 90 | 1013.4 |
| 20260509225004 | 19 | 201 | 1.6 | 8.0 | 0.13 | 8.18 | 8.00 | 90 | 1013.5 |
| 20260509224509 | 19 | 155 | 0.0 | 8.0 | 0.13 | 8.15 | 7.98 | 90 | 1013.5 |
| 20260509224004 | 19 | 155 | 3.2 | 11.3 | 0.10 | 8.13 | 7.95 | 90 | 1013.5 |
| 20260509223507 | 19 | 223 | 3.2 | 14.5 | 0.10 | 8.15 | 7.95 | 90 | 1013.8 |
| 20260509223014 | 19 | 178 | 3.2 | 14.5 | 0.08 | 8.13 | 7.92 | 90 | 1013.6 |
| 20260509222507 | 19 | 202 | 6.4 | 12.9 | 0.08 | 8.13 | 7.92 | 90 | 1013.5 |
| 20260509222011 | 19 | 288 | 4.8 | 12.9 | 0.08 | 8.13 | 7.92 | 90 | 1013.8 |
| 20260509221503 | 19 | 160 | 4.8 | 9.7 | 0.05 | 8.13 | 7.90 | 90 | 1013.1 |
| 20260509221004 | 19 | 140 | 4.8 | 8.0 | 0.05 | 8.13 | 7.90 | 90 | 1013.1 |
| 20260509220504 | 19 | 202 | 1.6 | 8.0 | 0.05 | 8.13 | 7.90 | 90 | 1013.4 |
| 20260509220008 | 19 | 287 | 3.2 | 8.0 | 0.03 | 8.13 | 7.87 | 90 | 1013.3 |
| 20260509215504 | 19 | 126 | 0.0 | 4.8 | 0.03 | 8.15 | 7.87 | 90 | 1012.5 |
| 20260509215003 | 19 | 126 | 1.6 | 4.8 | 0.03 | 8.15 | 7.87 | 90 | 1012.5 |
| 20260509214508 | 19 | 74 | 1.6 | 4.8 | 0.03 | 8.15 | 7.85 | 90 | 1012.4 |
| 20260509214003 | 19 | 149 | 0.0 | 3.2 | 0.03 | 8.15 | 7.85 | 90 | 1012.3 |
| 20260509213504 | 19 | 149 | 0.0 | 4.8 | 0.03 | 8.18 | 7.85 | 90 | 1012.5 |
| 20260509213025 | 19 | 149 | 1.6 | 4.8 | 0.05 | 8.20 | 7.85 | 90 | 1012.5 |
| 20260509212505 | 19 | 149 | 0.0 | 8.0 | 0.08 | 8.23 | 7.85 | 90 | 1012.3 |
| 20260509212009 | 19 | 148 | 3.2 | 8.0 | 0.10 | 8.26 | 7.85 | 90 | 1012.2 |
| 20260509211516 | 19 | 167 | 3.2 | 8.0 | 0.13 | 8.28 | 7.85 | 90 | 1012.3 |
| 20260509211010 | 19 | 288 | 1.6 | 6.4 | 0.13 | 8.33 | 7.85 | 90 | 1012.5 |
| 20260509210507 | 19 | 217 | 4.8 | 6.4 | 0.15 | 8.36 | 7.85 | 90 | 1012.5 |
| 20260509210001 | 19 | 124 | 1.6 | 9.7 | 0.15 | 8.41 | 7.85 | 90 | 1012.0 |
| 20260509205504 | 19 | 259 | 1.6 | 12.9 | 0.15 | 8.46 | 7.85 | 90 | 1012.3 |